Terug naar catalogus

NIMBUS 2

ActiefWeerSSO
NORAD 2173·PAYLOAD·🇺🇸 United States

Gelanceerd May 15, 1966 vanaf Vandenberg Space Force Base

Loading…

Volgende Passages (komende 24 uur)

TLE

VersSource: Space-Track

Epoch: Sep 14, 2026, 13:59 UTC

1 02173U 66040A   26257.58298223 -.00000024  00000-0  46927-4 0  9999
2 02173 100.5152 118.3655 0055898  87.6551 301.3470 13.33723420935547

Volg NIMBUS 2 in realtime met AllMySat

Download on the App Store